330  
AXUS43 KLBF 230310  
MISLBF  
 
WESTERN AND NORTH CENTRAL NEBRASKA HOURLY WEATHER ROUNDUP  
NATIONAL WEATHER SERVICE NORTH PLATTE NE  
1000 PM CDT FRI SEP 22 2017  
 
NOTE: "FAIR" INDICATES FEW OR NO CLOUDS BELOW 12,000 FEET WITH NO  
SIGNIFICANT WEATHER AND/OR OBSTRUCTIONS TO VISIBILITY.  
 
NOTE: STATIONS NOT REPORTING VARIABLES SUCH AS SKY/WEATHER OR  
PRESSURE ARE PROVIDED BY RAWS AND APRS NETWORKS AND ARE NOT UNDER  
NATIONAL WEATHER SERVICE QUALITY CONTROL.  
   
..OBSERVATIONS IN AND NEAR THE EASTERN PANHANDLE OF NEBRASKA
 
 
 
CITY SKY/WX TMP DP RH WIND PRES REMARKS  
PINE RIDGE PTCLDY 54 40 59 N13 29.95R  
GORDON FAIR 52 41 65 N12 29.94R  
CHADRON PTCLDY 53 38 56 NE14 29.95R  
ALLIANCE CLEAR 54 41 61 NE20G26 29.88R  
SIDNEY CLEAR 59 46 62 NE14 29.87R  
CRESCENT LAKE N/A 56 43 62 NE13G23 N/A  

 
   
..OBSERVATIONS IN NORTHERN NEBRASKA AND FAR SOUTHERN SOUTH DAKOTA
 
 
 
CITY SKY/WX TMP DP RH WIND PRES REMARKS  
WINNER CLOUDY 58 51 78 N7 29.89R  
VALENTINE CLOUDY 57 44 62 N9 29.91R  
THEDFORD CLOUDY 60 51 71 N9 29.90R  
AINSWORTH MOCLDY 56 51 83 N16G22 29.89R  
O'NEILL CLOUDY 64 58 83 CALM 29.84R  
ORD MOCLDY 81 58 45 SE8 29.77R  
BROKEN BOW CLOUDY 69 55 60 N13 29.81R  
VALENTINE NWR N/A 58 46 64 N8G15 N/A  
HALSEY N/A 61 54 77 N6 N/A  
BUTTE N/A 62 53 73 NW9 N/A  
CHAMBERS N/A 65 56 71 N3 N/A  
EWING N/A 67 59 75 NE3 N/A  

 
   
..OBSERVATIONS IN SOUTHWEST NEBRASKA AND FAR NORTHEAST COLORADO
 
 
 
CITY SKY/WX TMP DP RH WIND PRES REMARKS  
WRAY FAIR 79 50 36 S15G23 29.76R  
HOLYOKE FAIR 68 46 45 NE21 29.81S  
IMPERIAL CLOUDY 82 52 35 S16G26 29.76R  
OGALLALA CLOUDY 65 49 58 NE14G23 29.83R  
NORTH PLATTE CLOUDY 67 53 61 NE24 29.80R  
MCCOOK PTCLDY 85 58 39 S22G32 29.76R  
LEXINGTON PTCLDY 84 58 40 S17G26 29.78R  
STAPLETON N/A 62 53 72 CALM N/A  
GOTHENBURG N/A 85 53 32 SE7 N/A  
CALLAWAY N/A 71 57 61 N16 N/A  

 
   
..OBSERVATIONS IN CENTRAL LINCOLN COUNTY AREA
 
 
 
CITY SKY/WX TMP DP RH WIND PRES REMARKS  
N.P. AIRPORT CLOUDY 67 53 61 NE24 29.80R  
N.P. DOWNTOWN N/A 64 54 70 NE10 N/A  
N.P. SOUTHEAST N/A 66 53 63 N7G16 N/A  
N.P. HILLCREST N/A 62 54 74 NE25G33 N/A  

 
   
..SOME OBSERVATIONS FROM AROUND THE REGION
 
 
 
CITY SKY/WX TMP DP RH WIND PRES REMARKS  
DENVER CLOUDY 60 40 47 NW15 29.92R  
LIMON N/A N/A N/A N/A MISG 29.86R  
ASPEN CLOUDY 51 38 60 S5 29.97R  
LARAMIE CLOUDY 45 39 79 NE3 30.00R  
CASPER CLOUDY 45 42 89 N13 29.97R  
CHEYENNE PTCLDY 49 36 61 N14G21 29.98R  
SCOTTSBLUFF LGT RAIN 57 45 64 NE15 29.90R  
GRAND ISLAND PTCLDY 82 65 56 S18G29 29.81R  
OMAHA PTCLDY 83 67 58 S20 29.87R  
SIOUX FALLS CLOUDY 74 67 78 CALM 29.79R  
PIERRE CLOUDY 52 44 74 N6 29.95R  
RAPID CITY MOCLDY 50 36 57 N23G30 29.96R  
BISMARCK CLOUDY 50 45 83 N16G26 29.95R  
KANSAS CITY PTCLDY 77 69 76 S8 29.95R  
HILL CITY CLEAR 84 60 44 S17G25 29.83R  
WICHITA CLEAR 79 69 71 S15 29.92R  
DODGE CITY CLOUDY 80 63 55 S23G30 29.87R  
OKLAHOMA CITY PTCLDY 78 65 63 SE12 29.93R  
DALLAS CLEAR 85 66 53 SE10 29.90R  
AMARILLO CLOUDY 78 59 51 SE13 29.93R  

 
 
 
CLICK HERE TO GO TO PREVIOUS BULLETINS.

The Nexlab NE Page Main Text Page